Regional Weather Roundup
Issued by NWS

Home | Current Version | Previous Version | Text Only | Print | Product List | Glossary On
Versions: 1 2 3 4 5 6 7 8 9 10 11 12 13 14 15 16 17 18 19 20 21 22 23 24 25 26 27 28 29 30 31 32 33 34 35 36 37 38 39 40 41 42 43 44 45 46 47 48 49 50
000
ASUS43 KLMK 260910
RWRKY
KENTUCKY REGIONAL WEATHER ROUNDUP
NATIONAL WEATHER SERVICE LOUISVILLE KY
400 AM EST FRI DEC 26 2014

NOTE "FAIR" INDICATES FEW OR NO CLOUDS BELOW 12,000 FEET
WITH NO SIGNIFICANT WEATHER AND/OR OBSTRUCTIONS TO VISIBILITY.

KYZ001>023-026-027-061>063-070>075-261000-
WESTERN AND SOUTH CENTRAL KENTUCKY

CITY           SKY/WX    TMP DP  RH WIND       PRES   REMARKS
PADUCAH        CLEAR     40  34  79 S6        30.17R
HENDERSON      CLEAR     37  30  75 S5        30.19R WCI  34
OWENSBORO      CLEAR     37  33  85 S7        30.22R WCI  31
HOPKINSVILLE   PTCLDY    35  33  90 E5        30.22R WCI  31
BOWLING GREEN  CLEAR     30  26  85 CALM      30.24R
GLASGOW        CLEAR     29  29 100 CALM      30.23S
$$

KYZ024-025-028>034-038-045-046-053-261000-
NORTH CENTRAL KENTUCKY

CITY           SKY/WX    TMP DP  RH WIND       PRES   REMARKS
LOUISVILLE/SDF CLEAR     37  32  82 SE5       30.22R WCI  33
LOUISVILLE/LOU CLEAR     35  31  85 S5        30.22S WCI  31
FORT KNOX      CLEAR     33  31  91 S6        30.20S WCI  28
$$

KYZ035>037-039>044-047>052-055>060-089>105-261000-
NORTHEAST KENTUCKY

CITY           SKY/WX    TMP DP  RH WIND       PRES   REMARKS
LEXINGTON      CLEAR     32  29  88 S9        30.23R WCI  24
COVINGTON      CLEAR     32  26  78 S6        30.21R WCI  26
FRANKFORT      CLEAR     29  26  89 S5        30.22R WCI  24
$$

KYZ054-064>069-076>088-106>120-261000-
SOUTHEAST KENTUCKY

CITY           SKY/WX    TMP DP  RH WIND       PRES   REMARKS
JACKSON        CLEAR     32  28  85 S6        30.22S WCI  26
LONDON         CLEAR     28  23  81 SE5       30.25R WCI  23
SOMERSET       CLEAR     28  28 100 CALM      30.27R
MIDDLESBORO    CLEAR     27  27  98 CALM      30.28R
MONTICELLO     SUNNY     24  23  96 CALM      30.27S
$$



USA.gov is the U.S. government's official web portal to all federal, state and local government web resources and services.